Weather History for West Palm Beach, FL

Change the Weather History Date:

Monday, September 23, 2013

  Actual Average Record
Temperature  
Mean Temperature 82 °F 81 °F  
Max Temperature 87 °F 88 °F 94 °F (1990)
Min Temperature 77 °F 75 °F 64 °F (1897)
Degree Days  
Heating Degree Days 0 0  
Month to date heating degree days 0 0  
Since 1 July heating degree days 0 0  
Cooling Degree Days 17 16  
Month to date cooling degree days 386 389  
Year to date cooling degree days 3257 3095  
Growing Degree Days 32 (Base 50)    
Moisture  
Dew Point 75 °F    
Average Humidity 79    
Maximum Humidity 88    
Minimum Humidity 70    
Precipitation  
Precipitation 0.26 in 0.28 in 3.60 in (1960)
Month to date precipitation 7.19 6.54  
Year to date precipitation 54.81 47.26  
Snow  
Snow 0.00 in - - ()
Month to date snowfall 0.0  
Since 1 July snowfall 0.0  
Since 1 September snowfall 0.0  
Snow Depth 0.00 in    
Sea Level Pressure  
Sea Level Pressure 29.93 in    
Wind  
Wind Speed 4 mph (SSW)    
Max Wind Speed 18 mph    
Max Gust Speed 23 mph    
Visibility 10 miles    
Events Rain    
T = Trace of Precipitation, MM = Missing Value Source: NWS Daily Summary

Daily Weather History Graph

Daily Weather History Graph

Search for Another Location

Airport:

Trip Planner

Search our weather history database for the weather conditions in past years. The results will help you decide how hot, cold, wet, or windy it might be!

Date:

Astronomy

Sep. 23, 2013 Rise Set
Actual Time 7:09 AM EDT 7:15 PM EDT
Civil Twilight 6:46 AM EDT 7:38 PM EDT
Nautical Twilight 6:19 AM EDT 8:05 PM EDT
Astronomical Twilight 5:52 AM EDT 8:32 PM EDT
Moon 10:12 PM EDT (9/23) 11:01 AM EDT (9/23)
Length of Visible Light 12h 52m
Length of Day
12h 05m
Waning Gibbous, 81% of the Moon is Illuminated
Sep 23
Waning Gibbous
Sep 26
Last Quarter
Oct 4
New
Oct 11
First Quarter
Oct 18
Full

Hourly Weather History & Observations

Time (EDT) Temp. Heat Index Dew Point Humidity Pressure Visibility Wind Dir Wind Speed Gust Speed Precip Events Conditions
12:53 AM 80.2 °F 84.7 °F 73.6 °F 80% 29.87 in 10.0 mi WSW 4.6 mph - N/A   Mostly Cloudy
1:53 AM 79.5 °F - 73.9 °F 83% 29.87 in 10.0 mi SW 4.6 mph - N/A   Mostly Cloudy
2:53 AM 78.8 °F - 74.3 °F 86% 29.87 in 10.0 mi WNW 3.5 mph - N/A   Mostly Cloudy
3:53 AM 79.0 °F - 73.6 °F 83% 29.86 in 10.0 mi SW 4.6 mph - N/A   Overcast
4:53 AM 79.9 °F - 74.8 °F 85% 29.86 in 10.0 mi SSW 3.5 mph - N/A   Mostly Cloudy
5:53 AM 80.1 °F 84.8 °F 74.7 °F 83% 29.87 in 10.0 mi Calm Calm - N/A   Mostly Cloudy
6:53 AM 78.8 °F - 74.3 °F 86% 29.89 in 10.0 mi Calm Calm - N/A   Mostly Cloudy
7:53 AM 79.7 °F - 75.4 °F 87% 29.91 in 10.0 mi Calm Calm - N/A   Mostly Cloudy
8:53 AM 81.0 °F 87.3 °F 76.1 °F 85% 29.92 in 10.0 mi Calm Calm - N/A   Mostly Cloudy
9:53 AM 85.5 °F 95.9 °F 76.8 °F 75% 29.93 in 10.0 mi South 5.8 mph - N/A   Mostly Cloudy
10:53 AM 84.9 °F 95.3 °F 77.0 °F 77% 29.94 in 10.0 mi South 4.6 mph - N/A   Mostly Cloudy
11:16 AM 86.0 °F 95.1 °F 75.2 °F 70% 29.93 in 10.0 mi South 4.6 mph - N/A   Mostly Cloudy
11:53 AM 84.6 °F 93.9 °F 76.1 °F 76% 29.93 in 10.0 mi ESE 9.2 mph - N/A   Overcast
12:47 PM 86.0 °F 95.1 °F 75.2 °F 70% 29.92 in 10.0 mi SW 13.8 mph - N/A   Mostly Cloudy
12:53 PM 85.8 °F 94.6 °F 74.8 °F 70% 29.93 in 10.0 mi SW 12.7 mph - N/A   Mostly Cloudy
1:05 PM 84.2 °F 90.9 °F 73.4 °F 70% 29.93 in 10.0 mi SW 12.7 mph - 0.00 in Rain Light Rain
1:53 PM 82.8 °F 91.0 °F 76.5 °F 81% 29.93 in 10.0 mi SSW 6.9 mph - 0.00 in Rain Light Rain
2:53 PM 83.5 °F 89.4 °F 72.9 °F 70% 29.93 in 10.0 mi East 6.9 mph - 0.00 in   Overcast
3:53 PM 80.1 °F 84.1 °F 72.5 °F 78% 29.93 in 10.0 mi SSE 8.1 mph - 0.00 in   Mostly Cloudy
4:53 PM 82.0 °F 88.4 °F 74.5 °F 78% 29.90 in 10.0 mi SSE 4.6 mph - N/A   Overcast
5:53 PM 82.0 °F 87.7 °F 73.6 °F 75% 29.93 in 10.0 mi South 5.8 mph - N/A   Overcast
6:53 PM 82.0 °F 87.9 °F 73.8 °F 76% 29.94 in 10.0 mi Calm Calm - N/A   Overcast
7:53 PM 80.1 °F 84.6 °F 74.1 °F 82% 29.96 in 10.0 mi Calm Calm - 0.06 in   Mostly Cloudy
8:53 PM 80.1 °F 85.2 °F 75.6 °F 86% 29.97 in 10.0 mi Calm Calm - N/A   Mostly Cloudy
9:34 PM 80.6 °F 87.1 °F 77.0 °F 89% 29.98 in 2.0 mi Calm Calm - 0.08 in Rain Heavy Rain
9:43 PM 80.6 °F 86.2 °F 75.2 °F 84% 29.97 in 10.0 mi NW 6.9 mph - 0.11 in Rain Light Rain
9:53 PM 78.1 °F - 75.9 °F 93% 29.98 in 3.0 mi Calm Calm - 0.13 in Rain Heavy Rain
10:16 PM 78.8 °F - 75.2 °F 89% 29.98 in 10.0 mi ENE 3.5 mph - 0.07 in   Mostly Cloudy
10:53 PM 78.1 °F - 75.4 °F 91% 29.98 in 10.0 mi Calm Calm - 0.07 in   Mostly Cloudy
11:40 PM 80.6 °F 86.2 °F 75.2 °F 84% 29.98 in 10.0 mi NNE 4.6 mph - N/A   Mostly Cloudy
11:53 PM 79.7 °F - 75.4 °F 87% 29.98 in 10.0 mi ENE 4.6 mph - N/A   Mostly Cloudy